EW5684 Weather Reports


Display with metric or nautical units.
time (UTC)temp
F
wind
direction
speed
MPH
gust
MPH
rain 1hr
in
rain 24hr
in
rain mn
in
humidity
%
barometer
mb
20260504160239 64 0 1.0 6.0 0.00 0.00 0.00 46 1017.5
20260504150738 66 0 3.0 5.0 0.00 0.00 0.00 41 1017.6
20260504150504 66 0 1.0 5.0 0.00 0.00 0.00 41 1017.7
20260504141236 66 0 5.0 7.0 0.00 0.00 0.00 43 1018.0
20260504140736 67 0 3.0 6.0 0.00 0.00 0.00 43 1018.1
20260504140236 66 0 1.0 6.0 0.00 0.00 0.00 43 1018.1
20260504130430 63 0 1.0 5.0 0.00 0.00 0.00 50 1018.7
20260504110704 61 0 2.0 5.0 0.00 0.00 0.00 48 1019.4
20260504110204 61 0 4.0 5.0 0.00 0.00 0.00 47 1019.4
20260504100204 61 0 4.0 6.0 0.00 0.00 0.00 44 1019.4
20260504081705 60 0 3.0 5.0 0.00 0.00 0.00 43 1019.4
20260504081205 60 0 4.0 6.0 0.00 0.00 0.00 42 1019.1
20260504080705 60 0 4.0 7.0 0.00 0.00 0.00 42 1019.0
20260504080204 60 0 3.0 7.0 0.00 0.00 0.00 42 1018.9
20260504070204 59 0 4.0 5.0 0.00 0.00 0.00 51 1018.5
20260504060205 56 0 0.0 0.0 0.00 0.00 0.00 54 1018.3
20260504050431 59 0 1.0 4.0 0.00 0.00 0.00 46 1017.6
20260504045705 59 0 3.0 4.0 0.00 0.00 0.00 45 1017.6
20260504045204 59 0 3.0 5.0 0.00 0.00 0.00 45 1017.5
20260504044705 59 0 3.0 6.0 0.00 0.00 0.00 45 1017.5
20260504044205 59 0 4.0 6.0 0.00 0.00 0.00 46 1017.5
20260504043704 59 0 3.0 5.0 0.00 0.00 0.00 47 1017.5
20260504043204 59 0 4.0 5.0 0.00 0.00 0.00 47 1017.4
20260504042704 58 0 3.0 5.0 0.00 0.00 0.00 47 1017.4
20260504042204 58 0 3.0 5.0 0.00 0.00 0.00 47 1017.4
20260504041704 58 0 4.0 5.0 0.00 0.00 0.00 48 1017.3
20260504041205 58 0 3.0 4.0 0.00 0.00 0.00 48 1017.3
20260504040929 58 0 3.0 3.0 0.00 0.00 0.00 49 1017.4
20260504040205 58 0 2.0 3.0 0.00 0.00 0.00 51 1017.4
20260504035704 58 0 2.0 3.0 0.00 0.00 0.00 51 1017.3
20260504035204 57 0 0.0 0.0 0.00 0.00 0.00 52 1017.2
20260504034704 57 0 0.0 0.0 0.00 0.00 0.00 53 1017.3
20260504034204 57 0 0.0 0.0 0.00 0.00 0.00 54 1017.4
20260504033705 57 0 0.0 0.0 0.00 0.00 0.00 54 1017.4
20260504033204 58 0 0.0 1.0 0.00 0.00 0.00 54 1017.4
20260504032704 58 0 0.0 3.0 0.00 0.00 0.00 53 1017.5
20260504032205 58 0 1.0 3.0 0.00 0.00 0.00 51 1017.6
20260504031704 58 0 0.0 4.0 0.00 0.00 0.00 50 1017.5
20260504031204 58 0 2.0 4.0 0.00 0.00 0.00 50 1017.4
20260504030704 58 0 3.0 4.0 0.00 0.00 0.00 51 1017.3
20260504030204 58 0 2.0 4.0 0.00 0.00 0.00 53 1017.3
20260504025923 58 0 3.0 4.0 0.00 0.00 0.00 52 1017.4
20260504025205 58 0 2.0 2.0 0.00 0.00 0.00 52 1017.5
20260504024706 58 0 2.0 3.0 0.00 0.00 0.00 52 1017.6
20260504024205 59 0 2.0 3.0 0.00 0.00 0.00 51 1017.5
20260504023712 59 0 0.0 3.0 0.00 0.00 0.00 49 1017.6
20260504023706 59 0 2.0 3.0 0.00 0.00 0.00 49 1017.7
20260504022705 59 0 1.0 4.0 0.00 0.00 0.00 49 1017.7
20260504022205 59 0 2.0 4.0 0.00 0.00 0.00 49 1017.7
20260504022143 59 0 2.0 5.0 0.00 0.00 0.00 49 1017.6
20260504021651 59 0 4.0 5.0 0.00 0.00 0.00 49 1017.5
20260504020707 59 0 3.0 6.0 0.00 0.00 0.00 50 1017.5
20260504020430 59 0 4.0 6.0 0.00 0.00 0.00 51 1017.5
20260504015705 58 0 5.0 6.0 0.00 0.00 0.00 53 1017.5
20260504015206 58 0 1.0 4.0 0.00 0.00 0.00 53 1017.4
20260504014706 58 0 0.0 0.0 0.00 0.00 0.00 53 1017.5
20260504014206 58 0 0.0 0.0 0.00 0.00 0.00 54 1017.6
20260504013706 58 0 0.0 0.0 0.00 0.00 0.00 54 1017.6
20260504013205 58 0 0.0 0.0 0.00 0.00 0.00 54 1017.7
20260504012706 58 0 0.0 0.0 0.00 0.00 0.00 53 1017.7
20260504012206 58 0 0.0 0.0 0.00 0.00 0.00 53 1017.6
20260504011927 58 0 0.0 0.0 0.00 0.00 0.00 53 1017.7
20260504011207 59 0 0.0 0.0 0.00 0.00 0.00 53 1017.7
20260504010705 59 0 0.0 0.0 0.00 0.00 0.00 52 1017.6
20260504010206 59 0 0.0 0.0 0.00 0.00 0.00 50 1017.6
20260504005706 59 0 0.0 0.0 0.00 0.00 0.00 50 1017.6
20260504005206 59 0 0.0 0.0 0.00 0.00 0.00 50 1017.5
20260504004706 59 0 0.0 0.0 0.00 0.00 0.00 49 1017.6
20260504004205 59 0 0.0 0.0 0.00 0.00 0.00 49 1017.7
20260504003706 59 0 0.0 0.0 0.00 0.00 0.00 49 1017.8
20260504003206 59 0 0.0 1.0 0.00 0.00 0.00 50 1017.8
20260504002706 60 0 0.0 3.0 0.00 0.00 0.00 50 1018.0
20260504002206 60 0 0.0 3.0 0.00 0.00 0.00 49 1018.1
20260504001706 60 0 1.0 2.0 0.00 0.00 0.00 49 1018.1
20260504001205 61 0 0.0 0.0 0.00 0.00 0.00 49 1018.1
20260504000706 61 0 0.0 2.0 0.00 0.00 0.00 48 1018.1
20260504000206 62 0 0.0 3.0 0.00 0.00 0.00 46 1018.2
20260503235706 62 0 2.0 3.0 0.00 0.00 0.00 45 1018.1
20260503235206 62 0 0.0 0.0 0.00 0.00 0.00 45 1018.2
20260503234706 62 0 0.0 1.0 0.00 0.00 0.00 45 1018.1
20260503234206 62 0 0.0 3.0 0.00 0.00 0.00 45 1018.0
20260503233706 62 0 2.0 4.0 0.00 0.00 0.00 45 1018.0
20260503233430 62 0 2.0 5.0 0.00 0.00 0.00 45 1017.9
20260503232926 62 0 4.0 6.0 0.00 0.00 0.00 46 1017.8
20260503232206 62 0 4.0 6.0 0.00 0.00 0.00 46 1018.0
20260503231706 62 0 3.0 4.0 0.00 0.00 0.00 46 1018.1
20260503231206 62 0 0.0 0.0 0.00 0.00 0.00 46 1018.3
20260503230705 62 0 0.0 2.0 0.00 0.00 0.00 46 1018.4
20260503230206 62 0 1.0 4.0 0.00 0.00 0.00 46 1018.3
20260503225706 62 0 2.0 4.0 0.00 0.00 0.00 46 1018.2
20260503225206 62 0 0.0 0.0 0.00 0.00 0.00 47 1018.4
20260503224705 62 0 0.0 0.0 0.00 0.00 0.00 47 1018.4
20260503224205 62 0 0.0 0.0 0.00 0.00 0.00 47 1018.4
20260503223706 62 0 0.0 0.0 0.00 0.00 0.00 47 1018.6
20260503223206 62 0 0.0 0.0 0.00 0.00 0.00 46 1018.5
20260503222929 62 0 0.0 0.0 0.00 0.00 0.00 46 1018.5
20260503222206 62 0 0.0 0.0 0.00 0.00 0.00 47 1018.5
20260503221706 62 0 0.0 0.0 0.00 0.00 0.00 47 1018.5
20260503221206 62 0 0.0 0.0 0.00 0.00 0.00 46 1018.5
20260503220706 62 0 0.0 0.0 0.00 0.00 0.00 47 1018.5
20260503220205 62 0 0.0 0.0 0.00 0.00 0.00 47 1018.5
20260503215705 62 0 0.0 0.0 0.00 0.00 0.00 49 1018.5
20260503215430 62 0 0.0 0.0 0.00 0.00 0.00 49 1018.5
20260503214705 62 0 0.0 0.0 0.00 0.00 0.00 49 1018.4
20260503214206 62 0 0.0 0.0 0.00 0.00 0.00 49 1018.3
20260503213706 62 0 0.0 0.0 0.00 0.00 0.00 49 1018.3
20260503213205 62 0 0.0 0.0 0.00 0.00 0.00 47 1018.4
20260503212706 62 0 0.0 0.0 0.00 0.00 0.00 47 1018.3
20260503212206 62 0 0.0 0.0 0.00 0.00 0.00 47 1018.3
20260503211706 63 0 0.0 0.0 0.00 0.00 0.00 46 1018.4
20260503211205 63 0 0.0 0.0 0.00 0.00 0.00 46 1018.4
20260503210706 63 0 0.0 0.0 0.00 0.00 0.00 45 1018.3
20260503210206 63 0 0.0 0.0 0.00 0.00 0.00 44 1018.3
20260503205706 63 0 0.0 0.0 0.00 0.00 0.00 44 1018.2
20260503205429 63 0 0.0 0.0 0.00 0.00 0.00 43 1018.2
20260503204707 63 0 0.0 0.0 0.00 0.00 0.00 43 1018.2
20260503204427 63 0 0.0 56.0 0.00 0.00 0.00 42 1018.2
20260503203706 63 0 0.0 56.0 0.00 0.00 0.00 42 1018.2
20260503203206 64 0 0.0 0.0 0.00 0.00 0.00 42 1018.3
20260503202706 64 0 0.0 0.0 0.00 0.00 0.00 41 1018.2
20260503202205 64 0 0.0 0.0 0.00 0.00 0.00 41 1018.2
20260503201706 64 0 0.0 0.0 0.00 0.00 0.00 41 1018.1
20260503201206 64 0 0.0 0.0 0.00 0.00 0.00 42 1018.1
20260503200706 64 0 0.0 0.0 0.00 0.00 0.00 42 1018.1
20260503200206 65 0 0.0 0.0 0.00 0.00 0.00 41 1018.0
20260503195705 65 0 0.0 0.0 0.00 0.00 0.00 40 1018.1
20260503195205 65 0 0.0 0.0 0.00 0.00 0.00 40 1018.0
20260503194706 65 0 0.0 3.0 0.00 0.00 0.00 40 1018.0
20260503194425 65 0 0.0 3.0 0.00 0.00 0.00 40 1018.0
20260503193931 65 0 0.0 4.0 0.00 0.00 0.00 40 1017.9
20260503193206 65 0 2.0 4.0 0.00 0.00 0.00 40 1017.9
20260503192706 65 0 1.0 2.0 0.00 0.00 0.00 40 1017.9
20260503192207 65 0 1.0 3.0 0.00 0.00 0.00 40 1017.9
20260503191706 65 0 1.0 4.0 0.00 0.00 0.00 39 1017.8
20260503191205 66 0 2.0 4.0 0.00 0.00 0.00 39 1017.7
20260503190706 66 0 0.0 3.0 0.00 0.00 0.00 38 1017.7
20260503190432 66 0 0.0 3.0 0.00 0.00 0.00 38 1017.7
20260503185706 66 0 0.0 2.0 0.00 0.00 0.00 38 1017.7
20260503185206 66 0 0.0 4.0 0.00 0.00 0.00 37 1017.6
20260503184705 67 0 3.0 4.0 0.00 0.00 0.00 37 1017.6
20260503184430 67 0 2.0 5.0 0.00 0.00 0.00 37 1017.6
20260503183706 67 0 2.0 5.0 0.00 0.00 0.00 37 1017.6
20260503183205 67 0 1.0 4.0 0.00 0.00 0.00 37 1017.6
20260503182930 67 0 2.0 4.0 0.00 0.00 0.00 37 1017.5
20260503182424 68 0 2.0 4.0 0.00 0.00 0.00 36 1017.5
20260503181704 68 0 3.0 4.0 0.00 0.00 0.00 36 1017.4
20260503181204 68 0 3.0 4.0 0.00 0.00 0.00 36 1017.4
20260503180921 69 0 3.0 4.0 0.00 0.00 0.00 36 1017.4
20260503180204 69 0 2.0 3.0 0.00 0.00 0.00 35 1017.5
20260503175705 69 0 1.0 4.0 0.00 0.00 0.00 35 1017.4
20260503175430 69 0 3.0 6.0 0.00 0.00 0.00 34 1017.4
20260503174705 69 0 3.0 6.0 0.00 0.00 0.00 34 1017.4
20260503174205 70 0 3.0 5.0 0.00 0.00 0.00 33 1017.3
20260503173705 70 0 1.0 3.0 0.00 0.00 0.00 33 1017.3
20260503173204 70 0 2.0 3.0 0.00 0.00 0.00 32 1017.4
20260503172705 70 0 0.0 2.0 0.00 0.00 0.00 32 1017.4
20260503172204 70 0 0.0 2.0 0.00 0.00 0.00 32 1017.5
20260503171705 70 0 0.0 3.0 0.00 0.00 0.00 32 1017.5
20260503171205 70 0 1.0 4.0 0.00 0.00 0.00 31 1017.4
20260503170704 71 0 3.0 4.0 0.00 0.00 0.00 31 1017.5
20260503170204 71 0 2.0 4.0 0.00 0.00 0.00 31 1017.4